Location: Jackson Park
(37.2862°N, 79.9123°W)
Time: 14:26:02
(UTC+00:00)

Vanguard 2 - Pass Details

Date: 19 May 2026
Orbit: 553 x 2894 km, 32.9° (Epoch: 6 June)

Event Time Altitude Azimuth Distance (km) Brightness Sun altitude
Rises 04:40:23 0° 222° (SW) 5,543 - -32.3°
Reaches altitude 10° 04:43:51 10° 216° (SW) 4,813 - -32.4°
Exits shadow 04:57:25 47° 150° (SSE) 3,379 10.2 -32.8°
Maximum altitude 04:57:37 47° 149° (SSE) 3,384 10.3 -32.8°
Drops below altitude 10° 05:13:53 10° 83° (E) 5,643 12.0 -32.9°
Sets 05:18:18 0° 78° (ENE) 6,538 12.4 -32.9°
